Find Qianfan Jigui 01-05

NORAD ID: 60383 Int'l Des: 2024-140 Owner: YUANX Country: CN Constellation: qianfan operational
LEOCIRCULARPOLAR

实时位置

正在加载3D地球...

关于 Qianfan Jigui 01-05

正在加载描述...

即将过境

Passes for default location (London). Set your location on the main map for personalized predictions.

高度历史

Loading altitude history...

两行轨道根数

1 60383U 24140E 26106.92181117 .00000042 00000-0 47060-4 0 9993
2 60383 88.9656 286.2725 0014473 202.8930 157.1577 13.51005331 84208
Epoch: Apr 16, 2026 • Age: 14 hours

当前状态

高度 1086.3 km
速度 7.31 km/s
星下点 -66.62°S, 86.24°E
发射日期 Aug 6, 2024
运行时间 1.6 years
类型 internet

技术详情

分类 Payload
质量 267.00 kg
干质量 267.00 kg
总质量 267.00 kg
长度 0.30 m
直径 3.00 m
跨度 10.00 m
形状 Box+pan
制造商 SECM
平台类型 Qianfan
阶段状态 In Orbit
所有者/国家 YUANX/CN

Most Searched